www.pogodaiklimat.ru

Погода и климат >> Архив погоды >> Россия >> Краснодарский край >> Краснодар


АРХИВ ПОГОДЫ в Краснодаре

Время (UTC), дата Ветер
(напр.,м/с)
 
Видим.   Явления Облачность Т
(С)
Тd
(С)
f
(%)
Тe
(С)
Тes
(С)
Комфортность P
(гПа)
Po
(гПа)
Тmin
(С)
Tmax
(С)
R
(мм)
R24
(мм)
S
(см)
18 8.09 СВ 4 10 км ясно +20.6 +6.8 41 +22 +22 комфорт 1019.8 1015.7
21 8.09 СВ 5 10 км ясно +19.1 +4.1 37 +19 +19 тепло 1020.0 1015.9
00 9.09 СВ 5 10 км ясно +17.1 +2.9 39 +16 +16 по сезону 1019.6 1015.5
03 9.09 СВ 5 10 км ясно +15.7 +4.8 48 +15 +15 по сезону 1019.7 1015.5 +15.3
06 9.09 СВ 7 10 км ясно +21.2 +6.8 39 +22 +23 комфорт 1019.1 1015.0
09 9.09 В 11-16
{16}
10 км ясно +25.6 +4.4 25 +25 +25 комфорт 1018.4 1014.4
12 9.09 В 10-14
{17}
10 км ясно +26.8 +3.6 22 +25 +26 комфорт 1017.2 1013.2
15 9.09 СВ 6
{16}
10 км ясно +24.5 +4.8 28 +24 +24 комфорт 1017.0 1013.0 +27.3
18 9.09 СВ 6 10 км ясно +21.2 +5.2 35 +22 +22 комфорт 1017.5 1013.4
21 9.09 В 7 10 км ясно +19.9 +6.3 41 +20 +20 тепло 1017.6 1013.5
00 10.09 СВ 6 10 км ясно +18.1 +7.8 51 +18 +18 тепло 1017.4 1013.3
03 10.09 СВ 6 10 км ясно +15.9 +8.1 60 +15 +15 по сезону 1017.8 1013.7 +15.8
06 10.09 В 8-12
{12}
10 км ясно +19.9 +8.2 47 +20 +21 тепло 1018.8 1014.7 +15.7
09 10.09 В 10-15
{17}
10 км ясно +25.3 +7.5 32 +25 +26 комфорт 1018.4 1014.4
12 10.09 В 10-15
{16}
10 км ясно +27.3 +5.4 25 +26 +27 жарко 1017.7 1013.7
15 10.09 В 8-13
{15}
10 км ясно +25.6 +6.7 30 +25 +26 комфорт 1017.8 1013.8 +27.8
18 10.09 СВ 5
{13}
10 км ясно +22.1 +5.9 35 +23 +23 комфорт 1018.6 1014.5
21 10.09 СВ 6 10 км ясно +20.6 +4.2 34 +21 +21 комфорт 1018.9 1014.8
00 11.09 В 5 10 км ясно +18.4 +7.5 49 +18 +18 тепло 1019.7 1015.6
03 11.09 СВ 5 10 км ясно +16.6 +10.0 65 +16 +16 по сезону 1020.5 1016.4 +16.5
06 11.09 СВ 9-12
{13}
10 км ясно +20.9 +12.1 57 +23 +23 комфорт 1021.5 1017.4
09 11.09 В 10-14
{16}
10 км 3/3 1000 м
[Cu med, cong]
+26.0 +11.9 41 +27 +28 жарко 1021.2 1017.2
12 11.09 В 10-15
{16}
10 км 3/3 1000 м
[Cu med, cong]
+28.4 +8.1 28 +28 +28 жарко 1020.8 1016.8
15 11.09 В 7-10
{16}
10 км ясно +26.3 +7.5 30 +26 +26 жарко 1021.0 1017.0 +28.7
18 11.09 СВ 5 10 км ясно +22.1 +5.3 33 +22 +22 комфорт 1021.9 1017.8
21 11.09 СВ 5 10 км ясно +20.2 +3.0 32 +20 +20 тепло 1021.8 1017.7
00 12.09 СВ 5 10 км ясно +18.4 +5.2 42 +18 +18 тепло 1021.7 1017.6
03 12.09 СВ 4 10 км ясно +16.6 +6.4 51 +16 +16 по сезону 1022.7 1018.5 +16.2
06 12.09 В 7-10
{12}
10 км ясно +21.5 +6.6 38 +22 +24 комфорт 1023.2 1019.1
09 12.09 В 9-13
{14}
10 км ясно +27.1 +3.4 22 +26 +27 жарко 1022.0 1018.0
12 12.09 В 9-13
{14}
10 км ясно +28.4 +0.4 16 +26 +27 жарко 1020.9 1016.9
15 12.09 СВ 5
{12}
10 км ясно +25.8 +3.3 23 +25 +25 комфорт 1020.4 1016.4 +28.7
18 12.09 СВ 4 10 км ясно +21.4 +3.5 31 +22 +22 комфорт 1021.5 1017.4
21 12.09 СВ 4 10 км ясно +19.2 +3.0 34 +19 +19 тепло 1020.6 1016.5
00 13.09 СВ 3 10 км ясно +17.0 +5.3 46 +17 +17 тепло 1020.4 1016.3
03 13.09 СВ 5 10 км ясно +16.4 +6.4 52 +16 +16 по сезону 1021.1 1016.9 +16.3
06 13.09 В 7 10 км ясно +20.7 +6.9 41 +21 +23 комфорт 1022.2 1018.1 +15.9
09 13.09 В 7-11
{12}
10 км ясно +26.2 +5.6 27 +26 +29 жарко 1020.8 1016.8
12 13.09 СВ 6-10
{13}
10 км ясно +28.3 +2.4 19 +26 +29 жарко 1019.5 1015.5
15 13.09 СВ 4 10 км ясно +25.8 +3.4 23 +25 +25 комфорт 1019.0 1015.0 +28.6
18 13.09 СВ 4 10 км ясно +21.1 +3.3 31 +21 +21 комфорт 1019.8 1015.7
21 13.09 СВ 4 10 км ясно +19.0 +4.6 39 +19 +19 тепло 1019.5 1015.4
00 14.09 СВ 3 10 км ясно +16.2 +5.8 50 +16 +16 тепло 1019.5 1015.3
03 14.09 С 1 10 км ясно +11.2 +6.5 73 +11 +11 холодно 1019.8 1015.6 +10.5
06 14.09 В 2 10 км ясно +18.6 +8.5 52 +20 +24 тепло 1020.2 1016.1
09 14.09 Ю 2 10 км ясно +22.7 +10.4 46 +25 +36 комфорт 1019.0 1014.9
12 14.09 Ю 3 10 км ясно +25.9 +9.0 34 +26 +32 жарко 1017.6 1013.6
15 14.09 Ю 1 10 км ясно +24.5 +9.5 39 +25 +26 комфорт 1016.7 1012.7 +26.9
18 14.09 СЗ 2 10 км ясно +19.9 +6.6 42 +21 +21 комфорт 1017.5 1013.4
21 14.09 З 1 10 км ясно +15.1 +7.4 60 +16 +16 по сезону 1018.0 1013.8
00 15.09 штиль 0 10 км ясно +11.1 +8.0 81 +11 +11 прохладно 1018.2 1014.0
03 15.09 штиль 0 10 км ясно +11.2 +8.5 83 +11 +11 холодно 1018.8 1014.6 +10.7
06 15.09 З 2 10 км 3/0
[Ci fib]
+20.1 +10.0 52 +22 +26 комфорт 1019.5 1015.4
09 15.09 ЮЗ 3 10 км 3/0
[Ci fib]
+26.0 +8.0 32 +26 +35 жарко 1019.3 1015.3
12 15.09 СЗ 3 10 км 3/3 1000 м
[Cu med, cong]
+26.3 +9.5 35 +27 +31 жарко 1018.7 1014.7
15 15.09 СЗ 2 10 км ясно +24.5 +6.7 32 +25 +25 комфорт 1019.2 1015.2 +27.5

 

Местоположение метеостанции Краснодар (Краснодарский край, Россия): широта 45.05 долгота 39.03 высота над уровнем моря 29 м.

В архиве по умолчанию представлена погода в Краснодаре за последнюю неделю. Архивные данные за месяц целиком и за предыдущие месяцы, начиная с января 2011 года, Вы можете получить, выбрав интересующий диапазон дат из раскрывающегося списка и нажав кнопку "Ввод!".


*Определитесь, кто Вы:
робот инопланетянин человек

Внимание! Время в таблицах - всемирное. Для получения местного времени необходимо прибавить поправку, которая равна 3 ч.

Смотрите также архив погоды в соседних городах и на ближайших метеорологических станциях:

Погода в Горячем Ключе (Краснодарский край, Россия) (47 км)
Погода в Усть-Лабинске (Краснодарский край, Россия) (58 км)
Погода в Кореновске (Краснодарский край, Россия) (59 км)
Погода в Тимашевске (Краснодарский край, Россия) (65 км)
Погода в Славянске-на-Кубани (Краснодарский край, Россия) (76 км)
Погода в Белореченске (Краснодарский край, Россия) (76 км)
Погода в Крымске (Краснодарский край, Россия) (82 км)
Погода в Джубге (Краснодарский край, Россия) (84 км)
Погода в Горном (Краснодарский край, Россия) (88 км)
Погода в Геленджике (Краснодарский край, Россия) (92 км)

Пояснения к столбцам:

Ветер - указаны скорость ветра в м/с - средняя за 10 мин, порывы в срок и между сроками (в фигурных скобках) и направление, откуда дует ветер: С - северный, СВ - северо-восточный, В - восточный, ЮВ - юго-восточный, Ю - южный, ЮЗ - юго-западный, З - западный, СЗ - северо-западный.
Видимость - горизонтальная дальность видимости в метрах или километрах. При видимости от 1 до 10 км при отсутствии осадков обычно наблюдается дымка, при ухудшении видимости до 1 км и менее - туман. В сухую погоду видимость может ухудшаться дымом, пылью или мглою.
Явления - указаны атмосферные явления, наблюдавшиеся в срок или в последний час перед сроком; фигурными скобками обозначены явления, наблюдавшиеся между сроками (за 1-3 часа до срока); квадратными скобками обозначены град или гололедные отложения с указанием их диаметра в мм.
Облачность - указаны через наклонную черту общая и нижняя облачность в баллах и высота нижней границы облаков в метрах; квадратными скобками обозначены формы облаков: Ci - перистые, Cs - перисто-слоистые, Cc - перисто-кучевые, Ac - высококучевые, As - высокослоистые, Sc - слоисто-кучевые, Ns - слоисто-дождевые, Cu - кучевые, Cb - кучево-дождевые. Подробнее классификацию облаков см. в Атласе облаков (PDF).
T - Температура воздуха - температура, измеренная на высоте 2 м над землей.
Td - Температура точки росы - температура, при понижении до которой содержащийся в воздухе водяной пар достигнет насыщения.
f - Относительная влажность воздуха - влажноcть воздуха, измеренная на высоте 2 м над землей.
Te - Эффективная температура - температура, которую ощущает одетый по сезону человек в тени. Характеристика душности погоды. При расчете учитывается влияние влажности воздуха и скорости ветра на теплоощущения человека.
Tes - Эффективная температура на солнце - температура, которую ощущает человек, с поправкой на солнечный нагрев. Характеристика знойности погоды. Зависит от высоты солнца над горизонтом, облачности и скорости ветра. Ночью, в пасмурную погоду, а также при ветре 12 м/с и более поправка равна нулю.
P - Атмосферное давление - приведенное к уровню моря атмосферное давление.
Po - Атмосферное давление - измеренное на уровне метеостанции атмосферное давление.
Tmin - Минимальная температура - минимум температуры воздуха на высоте 2 м над землей.
Tmax - Максимальная температура - максимум температуры воздуха на высоте 2 м над землей.
R - Количество осадков - Количество выпавших осадков за период времени, мм. При наведении курсора мыши на число - период времени, за который выпало указанное количество осадков.
R24 - Количество осадков - Количество выпавших осадков за 24 часа, мм.
S - Снежный покров - Высота снежного покрова, см. При наведении курсора мыши на число - состояние снежного покрова и степень покрытия местности в баллах.